STARLINK-11483 [DTC] (62223 NORAD) Tracking and Keplerian Element Data

This shows tracking and keplerian element data for the satellite.

Feedback or suggestion? Click here.




ElementValue
Catalog62223
NameSTARLINK-11483 [DTC]
Epoch Orbit1077
Epoch Day34.85509356
Epoch Year2025
RAAN267.1139
Inclination53.1583
Eccentricity0.0001547
Argument of Perigee123.4349
Mean Anonmoly236.6817
Mean Motion15.69708321
Decay Rate-2.17E-06
L11 62223U 24231F 25034.85509356 -.00000217 00000+0 30723-5 0 9992
L22 62223 53.1583 267.1139 0001547 123.4349 236.6817 15.69708321 10774



Live tracking and technical data element details for STARLINK-11483 [DTC] (NORAD 62223). STARLINK-11483 [DTC] can be tracked NOW for your location showing map with azimuth and elevation plus other details from your city location.







IsCatalogInMostPopularTable: catalog: 62223, numindb: 15
Update: records affected: 1



GetName: 62223 STARLINK-11483 [DTC]

Hit Count: updated at: Mon, 19 May 2025 03:09:09 GMT